Regional Weather Roundup
Issued by NWS

Home | Current Version | Previous Version | Text Only | Print | Product List | Glossary On
Versions: 1 2 3 4 5 6 7 8 9 10 11 12 13 14 15 16 17 18 19 20 21 22 23 24 25 26 27 28 29 30 31 32 33 34 35 36 37 38 39 40 41 42 43 44 45 46 47 48 49 50
000
ASUS43 KLMK 120610
RWRKY
KENTUCKY REGIONAL WEATHER ROUNDUP
NATIONAL WEATHER SERVICE LOUISVILLE KY
100 AM EST TUE DEC 12 2017

NOTE "FAIR" INDICATES FEW OR NO CLOUDS BELOW 12,000 FEET
WITH NO SIGNIFICANT WEATHER AND/OR OBSTRUCTIONS TO VISIBILITY.

KYZ001>023-026-027-061>063-070>075-120700-
WESTERN AND SOUTH CENTRAL KENTUCKY

CITY           SKY/WX    TMP DP  RH WIND       PRES   REMARKS
PADUCAH        CLOUDY    49  31  49 NW13G22   29.96S
HENDERSON      CLOUDY    45  33  63 NW17G28   29.94R
OWENSBORO      CLOUDY    46  32  58 NW20      29.91R
HOPKINSVILLE   MOCLDY    48  29  47 NW9       29.91S
BOWLING GREEN  PTCLDY    47  29  49 NW8       29.89S
GLASGOW        PTCLDY    42  28  58 CALM      29.88R
$$

KYZ024-025-028>034-038-045-046-053-120700-
NORTH CENTRAL KENTUCKY

CITY           SKY/WX    TMP DP  RH WIND       PRES   REMARKS
LOUISVILLE/SDF MOCLDY    45  31  58 NW9       29.84R
LOUISVILLE/LOU MOCLDY    45  32  60 W20G29    29.83R
FORT KNOX      CLOUDY    44  31  60 W15G30    29.83S
$$

KYZ035>037-039>044-047>052-055>060-089>105-120700-
NORTHEAST KENTUCKY

CITY           SKY/WX    TMP DP  RH WIND       PRES   REMARKS
LEXINGTON      CLEAR     43  27  53 W13G20    29.80R
COVINGTON      MOCLDY    40  29  64 W24G30    29.75R WCI  29
FRANKFORT      MOCLDY    45  28  51 W8G21     29.79R
$$

KYZ054-064>069-076>088-106>120-120700-
SOUTHEAST KENTUCKY

CITY           SKY/WX    TMP DP  RH WIND       PRES   REMARKS
JACKSON        MOCLDY    46  29  51 W8        29.77R
LONDON         PTCLDY    47  26  44 W18G26    29.81R
SOMERSET       CLEAR     45  27  49 W8        29.85S
MIDDLESBORO    CLOUDY    43  32  64 CALM      29.81F
MONTICELLO     CLOUDY    46  29  51 W14G21    29.87S
$$





USA.gov is the U.S. government's official web portal to all federal, state and local government web resources and services.